Time,TemperatureF,DewpointF,PressureIn,WindDirection,WindDirectionDegrees,WindSpeedMPH,WindSpeedGustMPH,Humidity,HourlyPrecipIn,Conditions,Clouds,dailyrainin,SolarRadiationWatts/m^2,SoftwareType,DateUTC
2013-06-24 00:02:00,70.0,69.0,30.32,North,355,1.0,3.0,97,0.00,,,0.00,0.000000,,2013-06-24 04:02:00,
2013-06-24 00:10:00,69.0,68.0,30.31,NNW,345,1.0,2.0,97,0.00,,,0.00,0.000000,,2013-06-24 04:10:00,
2013-06-24 00:33:00,69.0,68.0,30.31,NNW,345,1.0,2.0,97,0.00,,,0.00,0.000000,,2013-06-24 04:33:00,
2013-06-24 00:43:00,69.0,68.0,30.31,NNW,345,1.0,2.0,97,0.00,,,0.00,0.000000,,2013-06-24 04:43:00,
2013-06-24 00:53:00,69.0,68.0,30.31,NNW,345,1.0,2.0,97,0.00,,,0.00,0.000000,,2013-06-24 04:53:00,
2013-06-24 01:02:00,69.0,68.0,30.31,NNW,345,1.0,2.0,97,0.00,,,0.00,0.000000,,2013-06-24 05:02:00,
2013-06-24 01:10:00,69.0,68.0,30.31,NW,306,3.0,7.0,97,0.00,,,0.00,0.000000,,2013-06-24 05:10:00,
2013-06-24 01:57:00,69.0,68.0,30.31,NW,306,3.0,7.0,97,0.00,,,0.00,0.000000,,2013-06-24 05:57:00,
2013-06-24 02:10:00,68.0,67.0,30.30,SW,218,1.0,4.0,98,0.00,,,0.00,0.000000,,2013-06-24 06:10:00,
2013-06-24 02:47:00,68.0,67.0,30.30,SW,218,1.0,4.0,98,0.00,,,0.00,0.000000,,2013-06-24 06:47:00,
2013-06-24 02:57:00,68.0,67.0,30.30,SW,218,1.0,4.0,98,0.00,,,0.00,0.000000,,2013-06-24 06:57:00,
2013-06-24 03:10:00,67.0,67.0,30.29,WSW,256,2.0,3.0,99,0.00,,,0.00,0.000000,,2013-06-24 07:10:00,
2013-06-24 03:49:00,67.0,67.0,30.29,WSW,256,2.0,3.0,99,0.00,,,0.00,0.000000,,2013-06-24 07:49:00,
2013-06-24 04:04:00,67.0,67.0,30.29,WSW,256,2.0,3.0,99,0.00,,,0.00,0.000000,,2013-06-24 08:04:00,
2013-06-24 04:10:00,69.0,69.0,30.30,NE,40,1.0,1.0,99,0.00,,,0.00,0.000000,,2013-06-24 08:10:00,
2013-06-24 04:47:00,69.0,69.0,30.30,NE,40,1.0,1.0,99,0.00,,,0.00,0.000000,,2013-06-24 08:47:00,
2013-06-24 04:55:00,69.0,69.0,30.30,NE,40,1.0,1.0,99,0.00,,,0.00,0.000000,,2013-06-24 08:55:00,
2013-06-24 05:07:00,69.0,69.0,30.30,NE,40,1.0,1.0,99,0.00,,,0.00,0.000000,,2013-06-24 09:07:00,
2013-06-24 05:10:00,70.0,70.0,30.30,NE,46,1.0,2.0,99,0.00,,,0.00,0.000000,,2013-06-24 09:10:00,
2013-06-24 05:49:00,70.0,70.0,30.30,NE,46,1.0,2.0,99,0.00,,,0.00,0.000000,,2013-06-24 09:49:00,
2013-06-24 06:00:00,70.0,70.0,30.30,NE,46,1.0,2.0,99,0.00,,,0.00,0.000000,,2013-06-24 10:00:00,
2013-06-24 06:10:00,68.0,68.0,30.30,South,171,2.0,3.0,99,0.00,,,0.00,0.000000,,2013-06-24 10:10:00,
2013-06-24 06:38:00,68.0,68.0,30.30,South,171,2.0,3.0,99,0.00,,,0.00,0.000000,,2013-06-24 10:38:00,
2013-06-24 06:51:00,68.0,68.0,30.30,South,171,2.0,3.0,99,0.00,,,0.00,0.000000,,2013-06-24 10:51:00,
2013-06-24 06:58:00,68.0,68.0,30.30,South,171,2.0,3.0,99,0.00,,,0.00,0.000000,,2013-06-24 10:58:00,
2013-06-24 07:10:00,69.0,69.0,30.32,SSW,193,3.0,6.0,99,0.00,,,0.00,22.000000,,2013-06-24 11:10:00,
2013-06-24 07:50:00,69.0,69.0,30.32,SSW,193,3.0,6.0,99,0.00,,,0.00,22.000000,,2013-06-24 11:50:00,
2013-06-24 07:58:00,69.0,69.0,30.32,SSW,193,3.0,6.0,99,0.00,,,0.00,22.000000,,2013-06-24 11:58:00,
2013-06-24 08:06:00,69.0,69.0,30.32,SSW,193,3.0,6.0,99,0.00,,,0.00,22.000000,,2013-06-24 12:06:00,
2013-06-24 08:10:00,76.0,74.0,30.32,SSW,208,4.0,10.0,95,0.00,,,0.00,128.000000,,2013-06-24 12:10:00,
2013-06-24 08:49:00,76.0,74.0,30.32,SSW,208,4.0,10.0,95,0.00,,,0.00,128.000000,,2013-06-24 12:49:00,
2013-06-24 08:55:00,76.0,74.0,30.32,SSW,208,4.0,10.0,95,0.00,,,0.00,128.000000,,2013-06-24 12:55:00,
2013-06-24 09:06:00,76.0,74.0,30.32,SSW,208,4.0,10.0,95,0.00,,,0.00,128.000000,,2013-06-24 13:06:00,
2013-06-24 09:10:00,79.0,71.0,30.32,SSW,201,7.0,11.0,77,0.00,,,0.00,352.000000,,2013-06-24 13:10:00,
2013-06-24 09:46:00,79.0,71.0,30.32,SSW,201,7.0,11.0,77,0.00,,,0.00,352.000000,,2013-06-24 13:46:00,
2013-06-24 09:58:00,79.0,71.0,30.32,SSW,201,7.0,11.0,77,0.00,,,0.00,352.000000,,2013-06-24 13:58:00,
2013-06-24 10:03:00,79.0,71.0,30.32,SSW,201,7.0,11.0,77,0.00,,,0.00,352.000000,,2013-06-24 14:03:00,
2013-06-24 10:10:00,84.0,73.0,30.33,ENE,71,3.0,9.0,69,0.00,,,0.00,418.000000,,2013-06-24 14:10:00,
2013-06-24 10:47:00,84.0,73.0,30.33,ENE,71,3.0,9.0,69,0.00,,,0.00,418.000000,,2013-06-24 14:47:00,
2013-06-24 10:59:00,84.0,73.0,30.33,ENE,71,3.0,9.0,69,0.00,,,0.00,418.000000,,2013-06-24 14:59:00,
2013-06-24 11:05:00,84.0,73.0,30.33,ENE,71,3.0,9.0,69,0.00,,,0.00,418.000000,,2013-06-24 15:05:00,
2013-06-24 11:10:00,84.0,70.0,30.33,WSW,255,4.0,11.0,63,0.00,,,0.00,616.000000,,2013-06-24 15:10:00,
2013-06-24 11:49:00,84.0,70.0,30.33,WSW,255,4.0,11.0,63,0.00,,,0.00,616.000000,,2013-06-24 15:49:00,
2013-06-24 11:57:00,84.0,70.0,30.33,WSW,255,4.0,11.0,63,0.00,,,0.00,616.000000,,2013-06-24 15:57:00,
2013-06-24 12:04:00,84.0,70.0,30.33,WSW,255,4.0,11.0,63,0.00,,,0.00,616.000000,,2013-06-24 16:04:00,
2013-06-24 12:10:00,84.0,70.0,30.33,SW,217,5.0,11.0,62,0.00,,,0.00,763.000000,,2013-06-24 16:10:00,
2013-06-24 12:45:00,84.0,70.0,30.33,SW,217,5.0,11.0,62,0.00,,,0.00,763.000000,,2013-06-24 16:45:00,
2013-06-24 12:56:00,84.0,70.0,30.33,SW,217,5.0,11.0,62,0.00,,,0.00,763.000000,,2013-06-24 16:56:00,
2013-06-24 13:06:00,84.0,70.0,30.33,SW,217,5.0,11.0,62,0.00,,,0.00,763.000000,,2013-06-24 17:06:00,
2013-06-24 13:10:00,89.0,71.0,30.30,SW,229,7.0,13.0,55,0.00,,,0.00,1006.000000,,2013-06-24 17:10:00,
2013-06-24 13:48:00,89.0,71.0,30.30,SW,229,7.0,13.0,55,0.00,,,0.00,1006.000000,,2013-06-24 17:48:00,
2013-06-24 13:57:00,89.0,71.0,30.30,SW,229,7.0,13.0,55,0.00,,,0.00,1006.000000,,2013-06-24 17:57:00,
2013-06-24 14:03:00,89.0,71.0,30.30,SW,229,7.0,13.0,55,0.00,,,0.00,1006.000000,,2013-06-24 18:03:00,
2013-06-24 14:10:00,86.0,73.0,30.27,SSW,192,10.0,23.0,66,0.00,,,0.00,838.000000,,2013-06-24 18:10:00,
2013-06-24 14:56:00,86.0,73.0,30.27,SSW,192,10.0,23.0,66,0.00,,,0.00,838.000000,,2013-06-24 18:56:00,
2013-06-24 15:07:00,86.0,73.0,30.27,SSW,192,10.0,23.0,66,0.00,,,0.00,838.000000,,2013-06-24 19:07:00,
2013-06-24 15:10:00,86.0,72.0,30.25,North,356,6.0,16.0,64,0.00,,,0.00,1092.000000,,2013-06-24 19:10:00,
2013-06-24 15:57:00,86.0,72.0,30.25,North,356,6.0,16.0,64,0.00,,,0.00,1092.000000,,2013-06-24 19:57:00,
2013-06-24 16:05:00,86.0,72.0,30.25,North,356,6.0,16.0,64,0.00,,,0.00,1092.000000,,2013-06-24 20:05:00,
2013-06-24 16:10:00,86.0,69.0,30.24,SSW,192,8.0,19.0,57,0.00,,,0.00,849.000000,,2013-06-24 20:10:00,
2013-06-24 16:47:00,86.0,69.0,30.24,SSW,192,8.0,19.0,57,0.00,,,0.00,849.000000,,2013-06-24 20:47:00,
2013-06-24 16:56:00,86.0,69.0,30.24,SSW,192,8.0,19.0,57,0.00,,,0.00,849.000000,,2013-06-24 20:56:00,
2013-06-24 17:04:00,86.0,69.0,30.24,SSW,192,8.0,19.0,57,0.00,,,0.00,849.000000,,2013-06-24 21:04:00,
2013-06-24 17:10:00,86.0,72.0,30.24,East,79,7.0,21.0,63,0.00,,,0.00,719.000000,,2013-06-24 21:10:00,
2013-06-24 17:48:00,86.0,72.0,30.24,East,79,7.0,21.0,63,0.00,,,0.00,719.000000,,2013-06-24 21:48:00,
2013-06-24 17:55:00,86.0,72.0,30.24,East,79,7.0,21.0,63,0.00,,,0.00,719.000000,,2013-06-24 21:55:00,
2013-06-24 18:06:00,86.0,72.0,30.24,East,79,7.0,21.0,63,0.00,,,0.00,719.000000,,2013-06-24 22:06:00,
2013-06-24 18:10:00,78.0,68.0,30.28,ESE,103,6.0,16.0,72,0.00,,,0.00,348.000000,,2013-06-24 22:10:00,
2013-06-24 18:51:00,78.0,68.0,30.28,ESE,103,6.0,16.0,72,0.00,,,0.00,348.000000,,2013-06-24 22:51:00,
2013-06-24 18:56:00,78.0,68.0,30.28,ESE,103,6.0,16.0,72,0.00,,,0.00,348.000000,,2013-06-24 22:56:00,
2013-06-24 19:05:00,78.0,68.0,30.28,ESE,103,6.0,16.0,72,0.00,,,0.00,348.000000,,2013-06-24 23:05:00,
2013-06-24 19:10:00,76.0,69.0,30.23,South,182,2.0,10.0,80,0.00,,,0.00,66.000000,,2013-06-24 23:10:00,
2013-06-24 19:46:00,76.0,69.0,30.23,South,182,2.0,10.0,80,0.00,,,0.00,66.000000,,2013-06-24 23:46:00,
2013-06-24 19:56:00,76.0,69.0,30.23,South,182,2.0,10.0,80,0.00,,,0.00,66.000000,,2013-06-24 23:56:00,
2013-06-24 20:06:00,76.0,69.0,30.23,South,182,2.0,10.0,80,0.00,,,0.00,66.000000,,2013-06-25 00:06:00,
2013-06-24 21:10:00,72.0,69.0,30.25,NE,34,1.0,9.0,89,-99.99,,,0.00,11.000000,,2013-06-25 01:10:00,
2013-06-24 21:46:00,72.0,69.0,30.25,NE,34,1.0,9.0,89,-99.99,,,0.00,11.000000,,2013-06-25 01:46:00,
2013-06-24 21:58:00,72.0,69.0,30.25,NE,34,1.0,9.0,89,-99.99,,,0.00,11.000000,,2013-06-25 01:58:00,
2013-06-24 22:05:00,72.0,69.0,30.25,NE,34,1.0,9.0,89,-99.99,,,0.00,11.000000,,2013-06-25 02:05:00,
2013-06-24 23:07:00,71.0,70.0,30.26,WSW,239,3.0,5.0,96,0.00,,,0.00,0.000000,,2013-06-25 03:07:00,
2013-06-24 23:10:00,71.0,69.0,30.26,South,186,4.0,9.0,95,0.00,,,0.00,0.000000,,2013-06-25 03:10:00,